Regional Weather Roundup
Issued by NWS Midland/Odessa, TX

Home | Current Version | Previous Version | Text Only | Print | Product List | Glossary On
Versions: 1 2 3 4 5 6 7 8 9 10 11 12 13 14 15 16 17 18 19 20 21 22 23 24 25 26 27 28 29 30 31 32 33 34 35 36 37 38 39 40 41 42 43 44 45 46 47 48 49 50
000
ASUS44 KMAF 281610
RWRMAF
MIDLAND AREA WEATHER ROUNDUP
NATIONAL WEATHER SERVICE MIDLAND TX
1000 AM CST WED JAN 28 2015

...IN SOUTHWEST TEXAS AND SOUTHEAST NEW MEXICO...

CITY           SKY/WX    TMP DP  RH WIND       PRES   REMARKS
ALPINE         SUNNY     64  45  49 SW6       30.30S
ANDREWS        FAIR      58  43  57 W7        30.16S
ARTESIA        PTSUNNY   50  45  81 CALM      30.20S
BIG SPRING     SUNNY     59  41  52 S7        30.18S
CARLSBAD       MOSUNNY   61  44  53 NE7       30.17R
DRYDEN         NOT AVBL
FORT STOCKTON  SUNNY     65  48  54 S9        30.19R
GUAD PASS      MOSUNNY   47  39  74 SW15      30.26R
HOBBS          SUNNY     55  43  62 W13       30.19R
MARFA          SUNNY     55  46  71 CALM      30.29R
MIDLAND AIRPK  PTSUNNY   59  44  56 SW5       30.16S
MIDLAND INTL   PTSUNNY   61  45  55 SW7       30.16S
ODESSA         PTSUNNY   62  46  55 SW8       30.16S
PECOS          SUNNY     53  45  75 NW5       30.20R
PRESIDIO       FAIR      58  46  63 CALM      30.23R
SEMINOLE       CLOUDY    53  42  65 W7        30.17R
SNYDER         SUNNY    N/A N/A N/A SW9       30.14S
WINK           MOSUNNY   56  41  57 CALM      30.17R
$$
...OTHER STATIONS IN TEXAS...

CITY           SKY/WX    TMP DP  RH WIND       PRES   REMARKS
ABILENE        SUNNY     67  38  34 SW12      30.13R
AMARILLO       CLOUDY    55  37  50 W18       30.05R
AUSTIN         MOSUNNY   61  46  57 CALM      30.18R
BROWNSVILLE    SUNNY     67  63  87 S10       30.21R
CORPUS CHRISTI FOG       57  56  96 S9        30.21R VSB 1/4
DALLAS FTW     MOSUNNY   63  42  46 S13       30.11R
DEL RIO        SUNNY     59  38  45 CALM      30.18R
EL PASO        MOSUNNY   50  39  66 CALM      30.24R
HOUSTON INT    MOSUNNY   66  49  54 E3        30.22R
LUBBOCK        CLOUDY    51  41  68 W13       30.11R
SAN ANGELO     SUNNY     57  41  55 S3        30.16S
SAN ANTONIO    MOSUNNY   69  37  30 SW7       30.19R
WACO           SUNNY     59  44  57 SE3       30.16R
WICHITA FALLS  NOT AVBL
$$
...OTHER LOCATIONS IN NEW MEXICO...

CITY           SKY/WX    TMP DP  RH WIND       PRES   REMARKS
ALAMAGORDO     SUNNY     57  39  51 NW7       30.24S
ALBUQUERQUE    MOSUNNY   43  34  70 SE7       30.29S WCI  39
CANNON AFB     CLOUDY    49  37  63 W14       30.12R
CLOVIS         CLOUDY    55  37  50 W23G32    30.09S
HOLLOMAN AFB   SUNNY     49  40  71 N2        30.23S
ROSWELL        PTSUNNY   47  41  80 CALM      30.19R
RUIDOSO        SUNNY     50  32  50 W15G33    30.28S
SANTA FE       SUNNY     42  33  70 SW5       30.26R WCI  39
TRUTH OR CONSE SUNNY     52  36  54 N5        30.27R
TUCUMCARI      CLOUDY    53  37  54 W10       30.07R
$$



USA.gov is the U.S. government's official web portal to all federal, state and local government web resources and services.